Flight Track Log - Related Links

Times and Time Zones

All times are in EST time to prevent confusion due to time zone crossing. See the N5FT flight status page for this flight to view local times or setup timezone preferences in your user account.

Time Position Orientation Groundspeed Altitude Reporting Facility
EST Latitude Longitude Course Direction KTS MPH feet Rate Location/Type
Fri 02:13:12 PM 29.6100 -95.6575 175° South 94 108 900  Level Houston Center
Fri 02:13:37 PM 29.5994 -95.6564 175° South 100 115 1,300 988 Climbing Houston Center
Fri 02:14:37 PM 29.5822 -95.6750 223° Southwest 105 121 2,300 891 Climbing Houston Center
Fri 02:15:18 PM 29.5917 -95.6883 309° West 114 131 2,800 677 Climbing Houston Center
Fri 02:15:39 PM 29.6036 -95.7014 316° Northwest 124 143 3,000 290 Climbing Houston Center
Fri 02:16:20 PM 29.6228 -95.7267 311° West 133 153 3,100  Climbing Houston Center
Fri 02:16:40 PM 29.6319 -95.7367 317° Northwest 159 183 3,000 -190 Descending Houston Center
Fri 02:17:23 PM 29.6536 -95.7642 312° West 155 178 2,900  Descending Houston Center
Fri 02:17:41 PM 29.6647 -95.7761 317° Northwest 166 191 3,000  Climbing Houston Center
Fri 02:18:25 PM 29.6847 -95.8022 311° West 161 185 2,900  Descending Houston Center
Fri 02:18:42 PM 29.6975 -95.8156 318° Northwest 163 188 3,000  Climbing Houston Center
Fri 02:19:27 PM 29.7167 -95.8394 313° West 162 186 2,900  Descending Houston Center
Fri 02:19:44 PM 29.7283 -95.8528 315° West 158 182 3,000  Climbing Houston Center
Fri 02:20:29 PM 29.7450 -95.8769 308° West 158 182 2,900  Descending Houston Center
Fri 02:20:45 PM 29.7567 -95.8903 315° West 156 180 3,000  Climbing Houston Center
Fri 02:21:31 PM 29.7758 -95.9136 313° West 158 182 2,900  Descending Houston Center
Fri 02:21:46 PM 29.7872 -95.9278 313° West 160 184 3,000  Climbing Houston Center
Fri 02:22:33 PM 29.8125 -95.9572 315° West 158 182 2,900  Descending Houston Center
Fri 02:22:47 PM 29.8219 -95.9647 325° Northwest 160 184 3,000  Climbing Houston Center
Fri 02:23:35 PM 29.8511 -95.9536 18° North 157 181 2,900  Descending Houston Center
Fri 02:23:49 PM 29.8608 -95.9531 North 143 165 3,000 80 Climbing Houston Center
Fri 02:24:50 PM 29.9047 -95.9528 360° North 151 174 3,000 162 Level Houston Center
Fri 02:25:40 PM 29.9353 -95.9519 North 152 175 3,300 689 Climbing Houston Center
Fri 02:25:51 PM 29.9425 -95.9508 North 131 151 3,700 986 Climbing Houston Center
Fri 02:26:53 PM 29.9783 -95.9539 356° North 126 145 4,500 637 Climbing Houston Center
Fri 02:27:44 PM 30.0019 -95.9542 359° North 125 144 4,900 492 Climbing Houston Center
Fri 02:27:54 PM 30.0142 -95.9547 358° North 129 148 5,000 83 Climbing Houston Center
Fri 02:28:56 PM 30.0625 -95.9542 North 169 194 5,000  Level Houston Center
Fri 02:29:48 PM 30.0994 -95.9542 360° North 163 188 5,000  Level Houston Center
Fri 02:29:57 PM 30.1067 -95.9561 347° North 152 175 5,000 -97 Level Houston Center
Fri 02:30:50 PM 30.1433 -95.9558 360° North 162 186 4,900  Descending Houston Center
Fri 02:30:59 PM 30.1528 -95.9558 360° North 163 188 5,000  Climbing Houston Center
Fri 02:31:52 PM 30.1883 -95.9558 360° North 162 186 4,900  Descending Houston Center
Fri 02:32:01 PM 30.1989 -95.9553 North 160 184 5,000  Climbing Houston Center
Fri 02:32:54 PM 30.2339 -95.9567 358° North 163 188 4,900  Descending Houston Center
Fri 02:33:01 PM 30.2453 -95.9572 358° North 160 184 5,000  Climbing Houston Center
Fri 02:33:57 PM 30.2778 -95.9556 North 159 183 4,900  Descending Houston Center
Fri 02:34:03 PM 30.2892 -95.9569 354° North 161 185 5,000  Climbing Houston Center
Fri 02:34:59 PM 30.3303 -95.9567 360° North 158 182 4,900  Descending Houston Center
Fri 02:35:05 PM 30.3333 -95.9567 360° North 157 181 5,000  Climbing Houston Center
Fri 02:36:01 PM 30.3753 -95.9575 359° North 160 184 4,900 -51 Descending Houston Center
Fri 02:37:02 PM 30.4194 -95.9589 358° North 158 182 4,900  Level Houston Center
Fri 02:37:03 PM 30.4192 -95.9581 111° Southeast 158 182 4,900 492 Level Houston Center
Fri 02:38:03 PM 30.4636 -95.9586 359° North 145 167 5,400 484 Climbing Houston Center
Fri 02:38:05 PM 30.4633 -95.9575 106° East 158 182 5,400 492 Level Houston Center
Fri 02:39:04 PM 30.5036 -95.9589 358° North 133 153 5,900 484 Climbing Houston Center
Fri 02:39:07 PM 30.4994 -95.9583 173° South 139 160 5,900  Level Houston Center
Fri 02:40:09 PM 30.5419 -95.9606 357° North 146 168 5,900  Level Houston Center
Fri 02:40:11 PM 30.5539 -95.9603 North 167 192 5,900  Level Houston Center
Fri 02:41:11 PM 30.5975 -95.9606 360° North 163 188 5,900  Level Houston Center
Fri 02:41:13 PM 30.6000 -95.9600 11° North 164 189 5,900  Level Houston Center
Fri 02:42:13 PM 30.6439 -95.9603 360° North 164 189 5,900  Level Houston Center
Fri 02:42:14 PM 30.6444 -95.9622 288° West 164 189 5,900  Level Houston Center
Fri 02:43:16 PM 30.6900 -95.9617 North 166 191 5,900 290 Level Houston Center
Fri 02:44:18 PM 30.7339 -95.9619 360° North 162 186 6,500 634 Climbing Houston Center
Fri 02:45:19 PM 30.7747 -95.9642 357° North 139 160 7,200 677 Climbing Houston Center
Fri 02:45:20 PM 30.7717 -95.9619 148° Southeast 145 167 7,200 476 Level Houston Center
Fri 02:46:22 PM 30.8100 -95.9628 359° North 139 160 7,700 339 Climbing Houston Center
Fri 02:47:24 PM 30.8581 -95.9636 359° North 141 162 7,900 97 Climbing Houston Center
Fri 02:48:26 PM 30.9019 -95.9628 North 152 175 7,900  Level Houston Center
Fri 02:49:28 PM 30.9489 -95.9650 358° North 165 190 7,900  Level Houston Center
Fri 02:50:30 PM 30.9939 -95.9636 North 162 186 7,900  Level Houston Center
Fri 02:51:33 PM 31.0397 -95.9653 358° North 164 189 7,900  Level Houston Center
Fri 02:52:35 PM 31.0839 -95.9664 359° North 158 182 7,900  Level Houston Center
Fri 02:53:37 PM 31.1386 -95.9681 359° North 162 186 7,900  Level Houston Center
Fri 02:54:39 PM 31.1828 -95.9794 348° North 162 186 7,900  Level Houston Center
Fri 02:55:41 PM 31.2286 -95.9906 348° North 166 191 7,900  Level Houston Center
Fri 02:56:43 PM 31.2731 -96.0000 350° North 164 189 7,900  Level Houston Center
Fri 02:57:45 PM 31.3172 -96.0111 348° North 162 186 7,900  Level Houston Center
Fri 02:58:47 PM 31.3617 -96.0211 349° North 163 188 7,900  Level Houston Center
Fri 02:59:49 PM 31.4142 -96.0339 348° North 160 184 7,900  Level Houston Center
Fri 03:00:52 PM 31.4597 -96.0442 349° North 164 189 7,900  Level Houston Center
Fri 03:01:54 PM 31.5050 -96.0536 350° North 166 191 7,900  Level Houston Center
Fri 03:02:56 PM 31.5483 -96.0650 347° North 162 186 7,900  Level Houston Center
Fri 03:03:58 PM 31.5936 -96.0750 349° North 163 188 7,900  Level Houston Center
Fri 03:05:00 PM 31.6389 -96.0858 348° North 165 190 7,900  Level Houston Center
Fri 03:06:02 PM 31.6869 -96.0978 348° North 165 190 7,900  Level Houston Center
Fri 03:07:04 PM 31.7406 -96.1103 349° North 165 190 7,900  Level Houston Center
Fri 03:08:06 PM 31.7856 -96.1206 349° North 165 190 7,900  Level Houston Center
Fri 03:09:08 PM 31.8306 -96.1317 348° North 163 188 7,900  Level Houston Center
Fri 03:10:11 PM 31.8778 -96.1422 349° North 168 193 7,900  Level Houston Center
Fri 03:11:13 PM 31.9231 -96.1531 349° North 166 191 7,900  Level Houston Center
Fri 03:12:15 PM 31.9678 -96.1653 347° North 165 190 7,900  Level Houston Center
Fri 03:13:17 PM 32.0139 -96.1756 349° North 165 190 7,900  Level Houston Center
Fri 03:14:27 PM 32.0739 -96.1925 347° North 165 190 7,900  Level Fort Worth Center
Fri 03:15:27 PM 32.1200 -96.2042 348° North 165 190 7,900  Level Fort Worth Center
Fri 03:16:27 PM 32.1617 -96.2133 349° North 165 190 7,900  Level Fort Worth Center
Fri 03:17:27 PM 32.2058 -96.2300 342° North 165 190 7,900  Level Fort Worth Center
Fri 03:18:27 PM 32.2478 -96.2539 334° Northwest 170 196 7,900 -250 Level Fort Worth Center
Fri 03:19:27 PM 32.2856 -96.2781 332° Northwest 170 196 7,400 -350 Descending Fort Worth Center
Fri 03:20:27 PM 32.3317 -96.3069 332° Northwest 170 196 7,200 -250 Descending Fort Worth Center
Fri 03:21:27 PM 32.3672 -96.3261 336° Northwest 165 190 6,900 -150 Descending Fort Worth Center
Fri 03:22:27 PM 32.4114 -96.3553 331° Northwest 165 190 6,900  Level Fort Worth Center
Fri 03:23:27 PM 32.4492 -96.3769 334° Northwest 165 190 6,900  Level Fort Worth Center
Fri 03:24:27 PM 32.4933 -96.4036 333° Northwest 165 190 6,900  Level Fort Worth Center
Fri 03:25:27 PM 32.5289 -96.4253 333° Northwest 165 190 6,900  Level Fort Worth Center
Fri 03:26:27 PM 32.5750 -96.4519 334° Northwest 165 190 6,900  Level Fort Worth Center
Fri 03:27:27 PM 32.6108 -96.4761 330° Northwest 165 190 6,900 -100 Level Fort Worth Center
Fri 03:28:27 PM 32.6569 -96.5028 334° Northwest 165 190 6,700 -350 Descending Fort Worth Center
Fri 03:29:27 PM 32.6944 -96.5247 334° Northwest 165 190 6,200 -550 Descending Fort Worth Center
Fri 03:30:27 PM 32.7386 -96.5539 331° Northwest 165 190 5,600 -435 Descending Fort Worth Center
Fri 03:32:54 PM 32.8333 -96.6167 331° Northwest 160 184 4,700 -406 Descending Dallas / Fort Worth TRACON
Fri 03:33:54 PM 32.8667 -96.6500 320° Northwest 162 186 4,200 -400 Descending Dallas / Fort Worth TRACON
Fri 03:34:54 PM 32.9000 -96.6833 320° Northwest 152 175 3,900 -238 Descending Dallas / Fort Worth TRACON
Fri 03:36:00 PM 32.9333 -96.7167 320° Northwest 157 181 3,700 -350 Descending Dallas / Fort Worth TRACON
Fri 03:36:54 PM 32.9667 -96.7500 320° Northwest 156 180 3,200 -368 Descending Dallas / Fort Worth TRACON
Fri 03:37:54 PM 33.0000 -96.7667 337° Northwest 153 176 3,000 -150 Descending Dallas / Fort Worth TRACON
Fri 03:38:54 PM 33.0500 -96.7833 344° North 138 159 2,900 -50 Descending Dallas / Fort Worth TRACON
Fri 03:39:54 PM 33.0833 -96.8000 337° Northwest 141 162 2,900 -238 Level Dallas / Fort Worth TRACON
Fri 03:41:00 PM 33.1000 -96.8500 292° West 143 165 2,400 -333 Descending Dallas / Fort Worth TRACON
Fri 03:42:00 PM 33.1000 -96.8833 270° West 118 136 2,200 -250 Descending Dallas / Fort Worth TRACON
Fri 03:43:00 PM 33.0667 -96.8667 157° South 111 128 1,900 -150 Descending Dallas / Fort Worth TRACON
Fri 03:44:00 PM 33.0333 -96.8667 180° South 108 124 1,900 -263 Level Dallas / Fort Worth TRACON
Fri 03:44:54 PM 33.0167 -96.8500 140° Southeast 94 108 1,400 -526 Descending Dallas / Fort Worth TRACON
Fri 03:45:54 PM 32.9833 -96.8500 180° South 95 109 900 -500 Descending Dallas / Fort Worth TRACON

Login

Don't have an account? Register now (free) for customized features, flight alerts, and more!